Hourly Weather Maszewice

Today, 9 May, Sunday

Time Temperature Precipitation Wind Pressure Humidity
00:00 +4°C° 0 mm 3 mps 756 mmHg 71%
01:00 +4°C° 0 mm 3 mps 756 mmHg 74%
02:00 +5°C° 0 mm 3 mps 755 mmHg 71%
03:00 +6°C° 0 mm 4 mps 755 mmHg 67%
04:00 +6°C° 0 mm 4 mps 754 mmHg 64%
05:00 +7°C° 0 mm 4 mps 754 mmHg 64%
06:00 +7°C° 0 mm 4 mps 754 mmHg 64%
07:00 +7°C° 0 mm 4 mps 754 mmHg 64%
08:00 +11°C° 0 mm 4 mps 754 mmHg 60%
09:00 +14°C° 0 mm 5 mps 754 mmHg 57%
10:00 +16°C° 0 mm 5 mps 754 mmHg 53%
11:00 +19°C° 0 mm 5 mps 753 mmHg 52%
12:00 +20°C° 0 mm 5 mps 753 mmHg 50%
13:00 +22°C° 0 mm 5 mps 753 mmHg 49%
14:00 +22°C° 0 mm 5 mps 753 mmHg 51%
15:00 +22°C° 0 mm 5 mps 752 mmHg 53%
16:00 +22°C° 0 mm 4 mps 752 mmHg 55%
17:00 +20°C° 0 mm 4 mps 752 mmHg 63%
18:00 +19°C° 0 mm 4 mps 752 mmHg 71%
19:00 +17°C° 0 mm 4 mps 752 mmHg 79%
20:00 +15°C° 0 mm 4 mps 752 mmHg 81%
21:00 +14°C° 0 mm 3 mps 752 mmHg 84%
22:00 +13°C° 0 mm 3 mps 753 mmHg 86%
23:00 +12°C° 0 mm 3 mps 752 mmHg 84%

Tomorrow, 10 May, Monday

Time Temperature Precipitation Wind Pressure Humidity
00:00 +11°C° 0 mm 3 mps 752 mmHg 83%
01:00 +11°C° 0 mm 3 mps 752 mmHg 81%
02:00 +10°C° 0 mm 3 mps 752 mmHg 81%
03:00 +10°C° 0 mm 3 mps 752 mmHg 82%
04:00 +9°C° 0 mm 3 mps 752 mmHg 83%
05:00 +11°C° 0 mm 4 mps 752 mmHg 77%
06:00 +12°C° 0 mm 4 mps 752 mmHg 71%
07:00 +13°C° 0 mm 5 mps 752 mmHg 65%
08:00 +15°C° 0 mm 5 mps 751 mmHg 61%
09:00 +17°C° 0 mm 6 mps 751 mmHg 57%
10:00 +20°C° 0 mm 6 mps 751 mmHg 53%
11:00 +20°C° 0 mm 6 mps 751 mmHg 53%
12:00 +21°C° 0 mm 7 mps 751 mmHg 52%
13:00 +22°C° 0 mm 7 mps 751 mmHg 52%
14:00 +22°C° 0 mm 6 mps 751 mmHg 53%
15:00 +23°C° 0 mm 5 mps 751 mmHg 54%
16:00 +23°C° 0 mm 5 mps 751 mmHg 55%
17:00 +22°C° 0 mm 4 mps 751 mmHg 63%
18:00 +20°C° 0 mm 3 mps 751 mmHg 70%
19:00 +19°C° 0 mm 3 mps 752 mmHg 78%
20:00 +18°C° 0 mm 3 mps 752 mmHg 82%
21:00 +17°C° 0 mm 3 mps 752 mmHg 86%
22:00 +16°C° 0 mm 3 mps 752 mmHg 90%
23:00 +14°C° 0 mm 3 mps 752 mmHg 91%

Day after tomorrow, 11 May, Tuesday

Time Temperature Precipitation Wind Pressure Humidity
00:00 +14°C° 0 mm 3 mps 751 mmHg 92%
01:00 +13°C° 0 mm 3 mps 751 mmHg 93%
02:00 +13°C° 0 mm 3 mps 751 mmHg 93%
03:00 +12°C° 0 mm 3 mps 751 mmHg 93%
04:00 +12°C° 0 mm 3 mps 750 mmHg 93%
05:00 +14°C° 0 mm 4 mps 750 mmHg 87%
06:00 +15°C° 0 mm 4 mps 750 mmHg 81%
07:00 +17°C° 0 mm 5 mps 750 mmHg 75%
08:00 +19°C° 0 mm 5 mps 750 mmHg 69%
09:00 +21°C° 0 mm 5 mps 749 mmHg 64%
10:00 +22°C° 0 mm 6 mps 749 mmHg 59%
11:00 +23°C° 0 mm 6 mps 749 mmHg 57%
12:00 +24°C° 0 mm 6 mps 749 mmHg 55%
13:00 +24°C° 0 mm 6 mps 749 mmHg 54%
14:00 +25°C° 0 mm 5 mps 749 mmHg 56%
15:00 +25°C° 0 mm 5 mps 748 mmHg 57%
16:00 +25°C° 0 mm 5 mps 748 mmHg 59%
17:00 +23°C° 0 mm 4 mps 748 mmHg 65%
18:00 +22°C° 0 mm 4 mps 748 mmHg 70%
19:00 +21°C° 0 mm 4 mps 748 mmHg 76%
20:00 +20°C° 0 mm 3 mps 748 mmHg 80%
21:00 +19°C° 0 mm 3 mps 748 mmHg 84%
22:00 +17°C° 0 mm 3 mps 748 mmHg 88%
23:00 +17°C° 0 mm 3 mps 748 mmHg 89%

12 May, Wednesday

Time Temperature Precipitation Wind Pressure Humidity
00:00 +17°C° 0 mm 4 mps 748 mmHg 90%
01:00 +15°C° 0 mm 4 mps 748 mmHg 90%
02:00 +15°C° 0 mm 5 mps 748 mmHg 90%
03:00 +14°C° 0 mm 5 mps 748 mmHg 89%
04:00 +13°C° 0 mm 5 mps 748 mmHg 89%
05:00 +14°C° 0 mm 5 mps 748 mmHg 84%
06:00 +15°C° 0 mm 5 mps 748 mmHg 79%
07:00 +16°C° 0 mm 5 mps 748 mmHg 74%
08:00 +17°C° 0 mm 5 mps 748 mmHg 70%
09:00 +20°C° 0 mm 5 mps 748 mmHg 66%
10:00 +21°C° 0 mm 5 mps 748 mmHg 62%
11:00 +22°C° 0 mm 5 mps 748 mmHg 60%
12:00 +23°C° 0 mm 5 mps 748 mmHg 58%
13:00 +25°C° 0 mm 5 mps 748 mmHg 56%
14:00 +25°C° 0 mm 5 mps 748 mmHg 56%
15:00 +25°C° 0 mm 5 mps 747 mmHg 57%
16:00 +25°C° 0 mm 5 mps 747 mmHg 57%
17:00 +23°C° 0.2 mm 5 mps 747 mmHg 64%
18:00 +21°C° 0.2 mm 5 mps 747 mmHg 70%
19:00 +20°C° 0.2 mm 5 mps 747 mmHg 76%
20:00 +17°C° 0.1 mm 5 mps 747 mmHg 76%
21:00 +16°C° 0.1 mm 5 mps 748 mmHg 77%
22:00 +15°C° 0.1 mm 5 mps 748 mmHg 77%
23:00 +15°C° 0 mm 4 mps 748 mmHg 77%

13 May, Thursday

Time Temperature Precipitation Wind Pressure Humidity
00:00 +14°C° 0 mm 4 mps 748 mmHg 77%
01:00 +14°C° 0 mm 4 mps 748 mmHg 78%
02:00 +12°C° 0 mm 3 mps 748 mmHg 81%
03:00 +11°C° 0 mm 3 mps 748 mmHg 85%
04:00 +10°C° 0 mm 3 mps 748 mmHg 88%
05:00 +11°C° 0 mm 4 mps 748 mmHg 84%
06:00 +12°C° 0 mm 4 mps 748 mmHg 79%
07:00 +13°C° 0 mm 4 mps 748 mmHg 74%
08:00 +14°C° 0 mm 4 mps 748 mmHg 70%
09:00 +15°C° 0 mm 5 mps 748 mmHg 65%
10:00 +16°C° 0 mm 5 mps 748 mmHg 60%
11:00 +17°C° 0 mm 4 mps 748 mmHg 58%
12:00 +18°C° 0 mm 4 mps 748 mmHg 56%
13:00 +18°C° 0 mm 4 mps 748 mmHg 53%
14:00 +18°C° 0 mm 4 mps 748 mmHg 57%
15:00 +17°C° 0 mm 4 mps 748 mmHg 61%
16:00 +17°C° 0 mm 4 mps 748 mmHg 64%
17:00 +16°C° 0 mm 3 mps 748 mmHg 68%
18:00 +14°C° 0 mm 3 mps 748 mmHg 72%
19:00 +14°C° 0 mm 2 mps 748 mmHg 76%
20:00 +14°C° 0 mm 2 mps 748 mmHg 78%
21:00 +13°C° 0 mm 2 mps 748 mmHg 79%
22:00 +13°C° 0 mm 2 mps 748 mmHg 80%
23:00 +13°C° 0 mm 1 mps 748 mmHg 81%

14 May, Friday

Time Temperature Precipitation Wind Pressure Humidity
00:00 +12°C° 0 mm 1 mps 748 mmHg 82%
01:00 +12°C° 0 mm 1 mps 748 mmHg 83%
02:00 +12°C° 0 mm 1 mps 748 mmHg 84%
03:00 +11°C° 0 mm 1 mps 748 mmHg 85%
04:00 +11°C° 0 mm 1 mps 748 mmHg 85%
05:00 +12°C° 0 mm 1 mps 748 mmHg 84%
06:00 +12°C° 0 mm 1 mps 748 mmHg 83%
07:00 +13°C° 0 mm 1 mps 748 mmHg 83%
08:00 +14°C° 0 mm 1 mps 748 mmHg 80%
09:00 +14°C° 0 mm 2 mps 748 mmHg 78%
10:00 +15°C° 0 mm 2 mps 748 mmHg 76%
11:00 +16°C° 0.2 mm 3 mps 748 mmHg 71%
12:00 +17°C° 0.2 mm 3 mps 748 mmHg 67%
13:00 +18°C° 0.2 mm 3 mps 748 mmHg 63%
14:00 +18°C° 0.3 mm 3 mps 748 mmHg 66%
15:00 +17°C° 0.3 mm 4 mps 749 mmHg 68%
16:00 +17°C° 0.3 mm 4 mps 749 mmHg 71%
17:00 +16°C° 0.1 mm 3 mps 749 mmHg 76%
18:00 +14°C° 0.1 mm 3 mps 749 mmHg 81%
19:00 +13°C° 0.1 mm 3 mps 749 mmHg 86%
20:00 +13°C° 0 mm 3 mps 750 mmHg 88%
21:00 +13°C° 0 mm 2 mps 750 mmHg 90%
22:00 +13°C° 0 mm 2 mps 750 mmHg 92%
23:00 +12°C° 0 mm 2 mps 750 mmHg 93%
Show more